This demonstration page uses our WeatherBlox Daily Observations layout. Learn more.

Left ArrowRight Arrow

38.83388, -104.82136

Hourly Observations for April 11, 2017

Temp ( °F °C ) Dew Point ( °F °C ) Humidity (%) Winds ( mph kmh ) Pressure ( in mb ) Visibility ( mi km ) Precip ( " mm )
12:58 am 00:58 Clear 40 4.3 15 -9.3 37 37 NNW 8 13 29.78 1008 10 16 0.00 0.00
1:58 am 01:58 Clear 38 3.3 16 -8.7 41 41 NNW 6 9 29.80 1009 10 16 0.00 0.00
2:58 am 02:58 Clear 37 2.7 16 -8.8 43 43 NW 6 9 29.79 1009 10 16 0.00 0.00
3:58 am 03:58 Clear 37 2.7 15 -9.5 41 41 S 3 6 29.78 1008 10 16 0.00 0.00
4:58 am 04:58 Clear 39 3.7 9 -12.8 29 29 NNW 5 7 29.78 1008 10 16 0.00 0.00
5:58 am 05:58 Clear 40 4.4 7 -13.8 26 26 Calm 29.79 1009 10 16 0.00 0.00
6:58 am 06:58 Sunny 43 6.2 7 -14.1 22 22 NNW 7 11 29.82 1010 10 16 0.00 0.00
8:58 am 08:58 Sunny 49 9.2 12 -10.9 23 23 SE 6 9 29.84 1011 10 16 0.00 0.00
9:58 am 09:58 Sunny 51 10.5 14 -10.1 23 23 ESE 5 7 29.82 1010 10 16 0.00 0.00
10:58 am 10:58 Sunny 54 12.2 12 -11.2 18 18 E 6 9 29.81 1010 10 16 0.00 0.00
11:45 am 11:45 Sunny 57 14 12 -11 17 17 S 12 19 29.83 1010 10 16 0.00 0.00
11:58 am 11:58 Sunny 56 13.5 9 -13 15 15 ESE 12 19 29.78 1009 10 16 0.00 0.00
12:25 pm 12:25 Partly Cloudy 57 14 16 -9 20 20 ESE 17 28 29.83 1010 10 16 0.00 0.00
12:58 pm 12:58 Mostly Sunny 56 13.6 10 -12.4 15 15 SE 17 28 29.76 1008 10 16 0.00 0.00
2:58 pm 14:58 Partly Cloudy 58 14.5 6 -14.4 12 12 SE 20 31 29.72 1006 10 16 0.00 0.00
3:58 pm 15:58 Mostly Cloudy 58 14.2 4 -15.6 11 11 SSE 21 33 29.72 1006 10 16 0.00 0.00
4:58 pm 16:58 Sunny 57 14.1 14 -10.2 18 18 SSE 17 28 29.69 1005 10 16 0.00 0.00
5:58 pm 17:58 Mostly Cloudy 57 13.8 17 -8.2 21 21 SSE 10 17 29.69 1005 10 16 0.00 0.00
6:58 pm 18:58 Partly Cloudy 56 13.4 16 -9 20 20 SSW 8 13 29.67 1005 10 16 0.00 0.00
7:58 pm 19:58 Mostly Clear 56 13.1 17 -8.1 22 22 S 8 13 29.80 1009 10 16 0.00 0.00
8:58 pm 20:58 Mostly Cloudy 55 12.8 19 -7.3 24 24 S 6 9 29.66 1005 10 16 0.00 0.00
9:58 pm 21:58 Mostly Cloudy 52 11.2 21 -6 30 30 WSW 3 6 29.65 1004 10 16 0.00 0.00
10:58 pm 22:58 Partly Cloudy 51 10.6 21 -6.2 30 30 Calm 29.62 1003 10 16 0.00 0.00
11:58 pm 23:58 Clear 50 9.8 21 -6.2 32 32 Calm 29.61 1003 10 16 0.00 0.00

Powered by AerisWeather